Zurück zum Katalog

COSMOS 397 DEB *

AktivLEO
NORAD 5529·DEBRIS·🇷🇺 Russia

Gestartet Feb 25, 1971 von Baikonur Cosmodrome

Loading…

Nächste Überflüge (nächste 24 Stunden)

TLE

AktuellSource: Space-Track

Epoche: Sep 14, 2026, 15:23 UTC

1 05529U 71015BT  26257.64160953  .00001147  00000-0  36574-3 0  9992
2 05529  66.8398 125.8318 0045917  16.1822 344.0737 14.42718147872258

Verfolge COSMOS 397 DEB * in Echtzeit mit AllMySat

Download on the App Store